SWA1117 KBNA-KCLE

Flight info

Callsign SWA1117
Flight time 1h 12m
Altitude 35000
Route KRSTA4 OLSIE IIU DRUGA ROKNN4
Aircraft B737/M-SDE2E3FGHIRWXY/LB1

Departure

Time 2026-05-06 04:13
Airport Nashville International Airport (KBNA)

Arrival

Time 2026-05-06 05:25
Airport Cleveland Hopkins International Airport (KCLE)
Time Latitude Longitude Altitude Speed Heading
2026-05-06 03:56 36.12929 -86.66754 566 ft 0 kts 40°
2026-05-06 04:05 36.12924 -86.66759 570 ft 2 kts 40°
2026-05-06 04:05 36.12911 -86.66772 569 ft 2 kts 40°
2026-05-06 04:06 36.12899 -86.66785 570 ft 2 kts 40°
2026-05-06 04:06 36.12886 -86.66798 569 ft 2 kts 40°
2026-05-06 04:06 36.12878 -86.66806 574 ft 0 kts 40°
2026-05-06 04:07 36.12881 -86.66778 569 ft 8 kts 111°
2026-05-06 04:08 36.12838 -86.66730 571 ft 9 kts 146°
2026-05-06 04:08 36.12766 -86.66713 569 ft 12 kts 189°
2026-05-06 04:08 36.12688 -86.66778 572 ft 15 kts 221°
2026-05-06 04:08 36.12605 -86.66867 571 ft 16 kts 216°
2026-05-06 04:09 36.12513 -86.66933 574 ft 15 kts 209°
2026-05-06 04:09 36.12424 -86.66994 579 ft 14 kts 209°
2026-05-06 04:09 36.12348 -86.67071 580 ft 14 kts 224°
2026-05-06 04:09 36.12281 -86.67152 580 ft 13 kts 225°
2026-05-06 04:10 36.12212 -86.67236 582 ft 14 kts 226°
2026-05-06 04:10 36.12223 -86.67340 584 ft 13 kts 311°
2026-05-06 04:10 36.12285 -86.67421 584 ft 13 kts 314°
2026-05-06 04:10 36.12349 -86.67504 583 ft 13 kts 314°
2026-05-06 04:11 36.12412 -86.67586 584 ft 13 kts 310°
2026-05-06 04:11 36.12412 -86.67681 582 ft 14 kts 205°
2026-05-06 04:11 36.12349 -86.67740 582 ft 11 kts 281°
2026-05-06 04:11 36.12374 -86.67826 582 ft 10 kts 293°
2026-05-06 04:12 36.12399 -86.67908 581 ft 10 kts 285°
2026-05-06 04:12 36.12238 -86.68037 579 ft 64 kts 198°
2026-05-06 04:12 36.11591 -86.68295 582 ft 128 kts 198°
2026-05-06 04:12 36.10596 -86.68696 760 ft 165 kts 198°
2026-05-06 04:13 36.09534 -86.69122 1771 ft 151 kts 201°
2026-05-06 04:13 36.08754 -86.69846 2913 ft 140 kts 227°
2026-05-06 04:13 36.08344 -86.70968 3762 ft 152 kts 245°
2026-05-06 04:13 36.07968 -86.72277 4315 ft 172 kts 244°
2026-05-06 04:14 36.07512 -86.73764 4633 ft 206 kts 246°
2026-05-06 04:14 36.06980 -86.75532 5264 ft 226 kts 249°
2026-05-06 04:14 36.06736 -86.77497 6191 ft 237 kts 267°
2026-05-06 04:14 36.06968 -86.79507 6694 ft 238 kts 278°
2026-05-06 04:15 36.07382 -86.81505 6927 ft 241 kts 279°
2026-05-06 04:15 36.07823 -86.83504 6940 ft 243 kts 282°
2026-05-06 04:15 36.08700 -86.85349 6959 ft 260 kts 305°
2026-05-06 04:15 36.10214 -86.86700 6970 ft 282 kts 329°
2026-05-06 04:16 36.12203 -86.87125 7637 ft 302 kts 358°
2026-05-06 04:16 36.14267 -86.86659 8850 ft 302 kts
2026-05-06 04:16 36.16313 -86.86057 9844 ft 303 kts
2026-05-06 04:16 36.18387 -86.85426 10542 ft 315 kts
2026-05-06 04:17 36.20597 -86.84765 10927 ft 336 kts
2026-05-06 04:17 36.22897 -86.84077 11701 ft 342 kts
2026-05-06 04:17 36.25211 -86.83389 12634 ft 343 kts
2026-05-06 04:17 36.27539 -86.82705 13504 ft 347 kts
2026-05-06 04:18 36.29895 -86.82016 14326 ft 349 kts
2026-05-06 04:18 36.32273 -86.81313 15097 ft 356 kts
2026-05-06 04:18 36.34574 -86.79946 15805 ft 381 kts 31°
2026-05-06 04:18 36.36509 -86.77619 16650 ft 391 kts 41°
2026-05-06 04:19 36.38333 -86.75080 17476 ft 397 kts 43°
2026-05-06 04:19 36.40152 -86.72475 18219 ft 402 kts 44°
2026-05-06 04:19 36.41993 -86.69841 18912 ft 406 kts 43°
2026-05-06 04:19 36.43867 -86.67187 19583 ft 411 kts 43°
2026-05-06 04:20 36.45769 -86.64519 20261 ft 415 kts 42°
2026-05-06 04:20 36.47699 -86.61826 20957 ft 419 kts 42°
2026-05-06 04:20 36.49648 -86.59113 21614 ft 424 kts 42°
2026-05-06 04:20 36.51623 -86.56364 22262 ft 429 kts 42°
2026-05-06 04:21 36.53624 -86.53577 22868 ft 434 kts 42°
2026-05-06 04:21 36.55644 -86.50761 23485 ft 439 kts 42°
2026-05-06 04:21 36.57755 -86.48015 23983 ft 437 kts 32°
2026-05-06 04:21 36.60291 -86.46060 24483 ft 423 kts 15°
2026-05-06 04:22 36.63010 -86.44678 25069 ft 423 kts 12°
2026-05-06 04:22 36.65730 -86.43382 25568 ft 427 kts 12°
2026-05-06 04:22 36.68512 -86.42024 26042 ft 432 kts 13°
2026-05-06 04:23 36.74129 -86.39093 27046 ft 444 kts 16°
2026-05-06 04:23 36.76919 -86.37373 27545 ft 450 kts 19°
2026-05-06 04:23 36.79704 -86.35545 28043 ft 455 kts 19°
2026-05-06 04:23 36.82503 -86.33674 28526 ft 458 kts 19°
2026-05-06 04:24 36.85329 -86.31792 29007 ft 461 kts 19°
2026-05-06 04:24 36.88174 -86.29915 29485 ft 464 kts 19°
2026-05-06 04:24 36.91045 -86.28037 29963 ft 467 kts 18°
2026-05-06 04:24 36.93923 -86.26164 30490 ft 465 kts 18°
2026-05-06 04:25 36.96788 -86.24301 31080 ft 463 kts 17°
2026-05-06 04:25 36.99640 -86.22449 31635 ft 461 kts 17°
2026-05-06 04:25 37.02488 -86.20600 32117 ft 461 kts 17°
2026-05-06 04:25 37.05338 -86.18750 32580 ft 462 kts 16°
2026-05-06 04:26 37.08166 -86.16908 33572 ft 451 kts 18°
2026-05-06 04:26 37.10910 -86.15111 34355 ft 442 kts 17°
2026-05-06 04:26 37.13638 -86.13334 34711 ft 442 kts 17°
2026-05-06 04:26 37.16381 -86.11554 34827 ft 446 kts 17°
2026-05-06 04:27 37.19147 -86.09755 34841 ft 448 kts 17°
2026-05-06 04:27 37.24690 -86.06174 34850 ft 446 kts 15°
2026-05-06 04:28 37.30319 -86.02975 34844 ft 442 kts 13°
2026-05-06 04:28 37.35941 -85.99902 34843 ft 440 kts 13°
2026-05-06 04:29 37.41528 -85.96806 34832 ft 438 kts 13°
2026-05-06 04:29 37.47081 -85.93687 34821 ft 436 kts 13°
2026-05-06 04:30 37.52605 -85.90569 34818 ft 435 kts 13°
2026-05-06 04:30 37.58120 -85.87452 34818 ft 434 kts 14°
2026-05-06 04:31 37.63640 -85.84328 34818 ft 435 kts 14°
2026-05-06 04:31 37.69165 -85.81195 34816 ft 436 kts 14°
2026-05-06 04:32 37.74703 -85.78050 34814 ft 436 kts 14°
2026-05-06 04:32 37.80201 -85.74921 34822 ft 437 kts 14°
2026-05-06 04:33 37.85744 -85.71762 34817 ft 437 kts 14°
2026-05-06 04:33 37.91286 -85.68597 34819 ft 437 kts 14°
2026-05-06 04:34 37.96827 -85.65428 34805 ft 436 kts 14°
2026-05-06 04:34 38.02356 -85.62261 34821 ft 436 kts 14°
2026-05-06 04:35 38.07876 -85.59094 34813 ft 435 kts 14°
2026-05-06 04:35 38.13171 -85.55149 34830 ft 450 kts 27°
2026-05-06 04:36 38.18146 -85.50278 34833 ft 452 kts 29°
2026-05-06 04:36 38.23087 -85.45354 34833 ft 451 kts 29°
2026-05-06 04:37 38.28045 -85.40469 34819 ft 450 kts 28°
2026-05-06 04:37 38.33012 -85.35615 34830 ft 450 kts 28°
2026-05-06 04:38 38.37982 -85.30761 34822 ft 450 kts 29°
2026-05-06 04:38 38.42951 -85.25899 34819 ft 450 kts 29°
2026-05-06 04:39 38.47917 -85.21030 34823 ft 450 kts 29°
2026-05-06 04:39 38.52881 -85.16154 34833 ft 451 kts 29°
2026-05-06 04:40 38.57851 -85.11261 34828 ft 451 kts 30°
2026-05-06 04:40 38.62811 -85.06370 34835 ft 449 kts 30°
2026-05-06 04:41 38.67752 -85.01487 34831 ft 448 kts 30°
2026-05-06 04:41 38.72644 -84.96648 34821 ft 447 kts 30°
2026-05-06 04:42 38.77563 -84.91772 34828 ft 447 kts 30°
2026-05-06 04:42 38.82475 -84.86895 34833 ft 447 kts 30°
2026-05-06 04:43 38.87387 -84.82009 34828 ft 447 kts 30°
2026-05-06 04:43 38.92298 -84.77114 34829 ft 447 kts 31°
2026-05-06 04:44 38.97202 -84.72218 34822 ft 447 kts 31°
2026-05-06 04:44 39.02107 -84.67311 34827 ft 446 kts 31°
2026-05-06 04:45 39.07010 -84.62398 34820 ft 447 kts 31°
2026-05-06 04:45 39.11901 -84.57487 34831 ft 445 kts 31°
2026-05-06 04:46 39.16782 -84.52578 34838 ft 445 kts 31°
2026-05-06 04:46 39.21653 -84.47671 34827 ft 444 kts 31°
2026-05-06 04:47 39.26488 -84.42791 34834 ft 445 kts 31°
2026-05-06 04:47 39.28930 -84.40325 34571 ft 446 kts 31°
2026-05-06 04:47 39.31368 -84.37857 34346 ft 443 kts 31°
2026-05-06 04:47 39.33774 -84.35417 34102 ft 437 kts 31°
2026-05-06 04:48 39.36157 -84.32999 33861 ft 434 kts 31°
2026-05-06 04:48 39.38522 -84.30598 33605 ft 432 kts 31°
2026-05-06 04:48 39.40882 -84.28203 33357 ft 429 kts 31°
2026-05-06 04:48 39.43225 -84.25824 33083 ft 428 kts 31°
2026-05-06 04:49 39.45561 -84.23450 32801 ft 427 kts 32°
2026-05-06 04:49 39.47889 -84.21081 32550 ft 426 kts 32°
2026-05-06 04:49 39.50217 -84.18711 32295 ft 425 kts 32°
2026-05-06 04:49 39.52535 -84.16346 32041 ft 424 kts 32°
2026-05-06 04:50 39.54848 -84.13986 31785 ft 423 kts 32°
2026-05-06 04:50 39.57161 -84.11623 31536 ft 422 kts 32°
2026-05-06 04:50 39.59465 -84.09268 31291 ft 421 kts 32°
2026-05-06 04:50 39.61760 -84.06918 31044 ft 420 kts 32°
2026-05-06 04:51 39.64054 -84.04569 30797 ft 419 kts 32°
2026-05-06 04:51 39.66334 -84.02232 30556 ft 418 kts 32°
2026-05-06 04:51 39.68617 -83.99891 30322 ft 417 kts 32°
2026-05-06 04:51 39.70864 -83.97517 30081 ft 416 kts 34°
2026-05-06 04:52 39.73069 -83.95091 29840 ft 415 kts 35°
2026-05-06 04:52 39.75257 -83.92648 29545 ft 413 kts 35°
2026-05-06 04:52 39.77427 -83.90218 29273 ft 411 kts 35°
2026-05-06 04:52 39.79592 -83.87798 29004 ft 409 kts 35°
2026-05-06 04:53 39.81747 -83.85396 28735 ft 407 kts 35°
2026-05-06 04:53 39.83898 -83.83003 28461 ft 406 kts 36°
2026-05-06 04:53 39.86036 -83.80627 28200 ft 404 kts 36°
2026-05-06 04:53 39.88170 -83.78255 27935 ft 402 kts 36°
2026-05-06 04:54 39.90290 -83.75898 27680 ft 400 kts 36°
2026-05-06 04:54 39.92401 -83.73549 27428 ft 399 kts 36°
2026-05-06 04:54 39.94501 -83.71210 27174 ft 397 kts 36°
2026-05-06 04:54 39.96594 -83.68877 26918 ft 395 kts 36°
2026-05-06 04:55 39.98677 -83.66554 26665 ft 393 kts 36°
2026-05-06 04:55 40.00749 -83.64239 26412 ft 391 kts 36°
2026-05-06 04:55 40.02812 -83.61934 26166 ft 390 kts 37°
2026-05-06 04:55 40.04866 -83.59637 25917 ft 388 kts 37°
2026-05-06 04:56 40.06882 -83.57381 25666 ft 386 kts 37°
2026-05-06 04:56 40.08255 -83.55842 25501 ft 385 kts 37°
2026-05-06 04:56 40.10285 -83.53567 25265 ft 384 kts 37°
2026-05-06 04:56 40.12959 -83.50566 24952 ft 382 kts 37°
2026-05-06 04:57 40.14970 -83.48308 24714 ft 380 kts 37°
2026-05-06 04:57 40.16972 -83.46058 24480 ft 379 kts 37°
2026-05-06 04:57 40.18962 -83.43800 24249 ft 379 kts 39°
2026-05-06 04:57 40.20891 -83.41458 24016 ft 378 kts 40°
2026-05-06 04:58 40.22173 -83.39849 23860 ft 378 kts 41°
2026-05-06 04:58 40.24057 -83.37461 23631 ft 377 kts 41°
2026-05-06 04:58 40.25940 -83.35074 23394 ft 376 kts 41°
2026-05-06 04:58 40.27819 -83.32702 23135 ft 375 kts 41°
2026-05-06 04:59 40.29702 -83.30334 22861 ft 375 kts 41°
2026-05-06 04:59 40.31581 -83.27976 22589 ft 374 kts 41°
2026-05-06 04:59 40.33435 -83.25651 22313 ft 373 kts 41°
2026-05-06 04:59 40.35313 -83.23297 22049 ft 373 kts 41°
2026-05-06 05:00 40.37203 -83.20927 21790 ft 372 kts 41°
2026-05-06 05:00 40.39074 -83.18577 21531 ft 372 kts 41°
2026-05-06 05:00 40.40913 -83.16266 21287 ft 371 kts 41°
2026-05-06 05:00 40.42776 -83.13923 21029 ft 371 kts 41°
2026-05-06 05:01 40.44632 -83.11588 20784 ft 370 kts 41°
2026-05-06 05:01 40.46489 -83.09249 20543 ft 369 kts 41°
2026-05-06 05:01 40.48338 -83.06919 20298 ft 368 kts 41°
2026-05-06 05:01 40.50183 -83.04600 20057 ft 367 kts 41°
2026-05-06 05:02 40.52029 -83.02290 19808 ft 366 kts 41°
2026-05-06 05:02 40.53867 -82.99991 19570 ft 365 kts 41°
2026-05-06 05:02 40.55705 -82.97691 19330 ft 364 kts 41°
2026-05-06 05:02 40.57534 -82.95398 19089 ft 363 kts 41°
2026-05-06 05:03 40.59358 -82.93111 18852 ft 362 kts 41°
2026-05-06 05:03 40.61176 -82.90828 18614 ft 361 kts 41°
2026-05-06 05:03 40.62987 -82.88550 18354 ft 358 kts 41°
2026-05-06 05:03 40.64781 -82.86293 17994 ft 355 kts 41°
2026-05-06 05:04 40.66561 -82.84052 17584 ft 354 kts 41°
2026-05-06 05:04 40.68337 -82.81813 17190 ft 352 kts 41°
2026-05-06 05:04 40.70102 -82.79587 16809 ft 351 kts 41°
2026-05-06 05:04 40.71858 -82.77370 16498 ft 347 kts 41°
2026-05-06 05:05 40.73594 -82.75178 16150 ft 345 kts 41°
2026-05-06 05:05 40.75321 -82.72995 15786 ft 343 kts 41°
2026-05-06 05:05 40.77043 -82.70816 15412 ft 342 kts 41°
2026-05-06 05:05 40.78756 -82.68647 15026 ft 340 kts 41°
2026-05-06 05:06 40.80457 -82.66493 14656 ft 338 kts 41°
2026-05-06 05:06 40.82149 -82.64346 14297 ft 336 kts 41°
2026-05-06 05:06 40.83830 -82.62213 13923 ft 335 kts 41°
2026-05-06 05:06 40.85504 -82.60088 13536 ft 334 kts 42°
2026-05-06 05:07 40.87154 -82.57990 13122 ft 333 kts 41°
2026-05-06 05:07 40.88842 -82.55845 12729 ft 331 kts 41°
2026-05-06 05:07 40.90474 -82.53768 12355 ft 330 kts 41°
2026-05-06 05:07 40.92143 -82.51642 11976 ft 328 kts 41°
2026-05-06 05:08 40.93760 -82.49581 11645 ft 325 kts 41°
2026-05-06 05:08 40.95371 -82.47528 11379 ft 320 kts 41°
2026-05-06 05:08 40.96972 -82.45486 11036 ft 320 kts 41°
2026-05-06 05:08 40.98575 -82.43442 10675 ft 321 kts 40°
2026-05-06 05:09 41.00190 -82.41381 10296 ft 323 kts 40°
2026-05-06 05:09 41.01805 -82.39319 10073 ft 320 kts 40°
2026-05-06 05:09 41.03426 -82.37246 9618 ft 326 kts 41°
2026-05-06 05:09 41.05054 -82.35163 9183 ft 325 kts 40°
2026-05-06 05:10 41.06703 -82.33140 8768 ft 322 kts 38°
2026-05-06 05:10 41.08374 -82.31170 8381 ft 320 kts 37°
2026-05-06 05:10 41.10034 -82.29214 8006 ft 318 kts 37°
2026-05-06 05:10 41.11692 -82.27288 7635 ft 316 kts 37°
2026-05-06 05:11 41.13351 -82.25385 7268 ft 314 kts 37°
2026-05-06 05:11 41.14997 -82.23496 6920 ft 312 kts 36°
2026-05-06 05:11 41.16634 -82.21614 6571 ft 311 kts 37°
2026-05-06 05:11 41.18254 -82.19746 6355 ft 304 kts 36°
2026-05-06 05:12 41.19825 -82.17928 6204 ft 295 kts 36°
2026-05-06 05:12 41.21349 -82.16164 6079 ft 287 kts 36°
2026-05-06 05:12 41.22821 -82.14418 5866 ft 284 kts 41°
2026-05-06 05:12 41.24150 -82.12428 5483 ft 290 kts 47°
2026-05-06 05:13 41.25434 -82.10345 5103 ft 293 kts 48°
2026-05-06 05:13 41.26741 -82.08240 4713 ft 297 kts 47°
2026-05-06 05:13 41.28074 -82.06125 4302 ft 300 kts 47°
2026-05-06 05:13 41.29425 -82.04007 3894 ft 301 kts 47°
2026-05-06 05:14 41.30789 -82.01913 3658 ft 296 kts 46°
2026-05-06 05:14 41.32122 -81.99854 3281 ft 291 kts 47°
2026-05-06 05:14 41.33385 -81.97842 2884 ft 276 kts 47°
2026-05-06 05:14 41.34580 -81.95936 2514 ft 261 kts 48°
2026-05-06 05:15 41.35713 -81.94136 2204 ft 245 kts 49°
2026-05-06 05:15 41.36773 -81.92455 1875 ft 228 kts 51°
2026-05-06 05:15 41.37743 -81.90912 1542 ft 207 kts 50°
2026-05-06 05:15 41.38614 -81.89529 1238 ft 184 kts 49°
2026-05-06 05:16 41.39402 -81.88279 993 ft 173 kts 49°
2026-05-06 05:16 41.40209 -81.86976 1228 ft 191 kts 49°
2026-05-06 05:16 41.41119 -81.85645 2165 ft 198 kts 42°
2026-05-06 05:16 41.42372 -81.84724 2601 ft 215 kts
2026-05-06 05:17 41.43880 -81.84696 2785 ft 219 kts 343°
2026-05-06 05:17 41.45311 -81.84960 3518 ft 198 kts 341°
2026-05-06 05:17 41.46718 -81.85089 3685 ft 221 kts 352°
2026-05-06 05:17 41.48283 -81.85041 3671 ft 225 kts 352°
2026-05-06 05:18 41.49833 -81.84996 3601 ft 220 kts 352°
2026-05-06 05:18 41.51339 -81.84948 3554 ft 213 kts 352°
2026-05-06 05:18 41.52808 -81.84903 3567 ft 211 kts 353°
2026-05-06 05:18 41.54245 -81.84334 3557 ft 228 kts 34°
2026-05-06 05:19 41.55340 -81.82734 3530 ft 239 kts 49°
2026-05-06 05:19 41.56277 -81.80900 3364 ft 240 kts 72°
2026-05-06 05:19 41.56320 -81.78783 3207 ft 222 kts 117°
2026-05-06 05:19 41.55491 -81.77153 3126 ft 212 kts 140°
2026-05-06 05:20 41.54537 -81.75688 3009 ft 203 kts 141°
2026-05-06 05:20 41.53503 -81.74609 3003 ft 181 kts 158°
2026-05-06 05:20 41.52443 -81.73712 2999 ft 180 kts 158°
2026-05-06 05:20 41.51371 -81.72865 2987 ft 175 kts 168°
2026-05-06 05:21 41.50241 -81.72423 2976 ft 161 kts 188°
2026-05-06 05:21 41.49359 -81.72918 3010 ft 131 kts 225°
2026-05-06 05:21 41.48600 -81.73616 2838 ft 130 kts 220°
2026-05-06 05:21 41.47984 -81.74334 2779 ft 117 kts 228°
2026-05-06 05:22 41.47413 -81.75051 2645 ft 113 kts 226°
2026-05-06 05:22 41.46878 -81.75789 2523 ft 111 kts 231°
2026-05-06 05:22 41.46369 -81.76558 2389 ft 112 kts 231°
2026-05-06 05:22 41.45860 -81.77350 2236 ft 114 kts 230°
2026-05-06 05:23 41.45335 -81.78178 2083 ft 119 kts 230°
2026-05-06 05:23 41.44793 -81.79035 1918 ft 121 kts 229°
2026-05-06 05:23 41.43683 -81.80793 1510 ft 129 kts 230°
2026-05-06 05:24 41.43087 -81.81739 1326 ft 138 kts 231°
2026-05-06 05:24 41.42445 -81.82756 1139 ft 149 kts 231°
2026-05-06 05:24 41.41759 -81.83846 913 ft 154 kts 232°
2026-05-06 05:24 41.41087 -81.84924 795 ft 146 kts 231°
2026-05-06 05:25 41.40510 -81.85820 781 ft 106 kts 230°
2026-05-06 05:25 41.40132 -81.86421 770 ft 62 kts 230°
2026-05-06 05:25 41.39894 -81.86775 771 ft 42 kts 213°
2026-05-06 05:25 41.39748 -81.86613 776 ft 29 kts 76°
2026-05-06 05:26 41.39867 -81.86409 775 ft 27 kts 53°
2026-05-06 05:26 41.39986 -81.86226 773 ft 25 kts 51°
2026-05-06 05:26 41.40095 -81.86053 775 ft 23 kts 52°
2026-05-06 05:26 41.40229 -81.85953 778 ft 23 kts 10°
2026-05-06 05:27 41.40354 -81.85840 780 ft 23 kts 47°
2026-05-06 05:27 41.40489 -81.85630 783 ft 37 kts 50°
2026-05-06 05:27 41.40653 -81.85378 782 ft 35 kts 48°
2026-05-06 05:27 41.40800 -81.85140 784 ft 31 kts 51°
2026-05-06 05:28 41.40933 -81.84932 788 ft 29 kts 49°
2026-05-06 05:28 41.41053 -81.84733 790 ft 27 kts 65°
2026-05-06 05:28 41.41064 -81.84496 795 ft 25 kts 92°
2026-05-06 05:28 41.41067 -81.84293 793 ft 16 kts 75°
2026-05-06 05:29 41.41106 -81.84181 793 ft 0 kts 44°